There are multiple Weather-warnings   Click here for more information


Meteo18 Weather Cam more information Meteo18 Weather Cam


Thunder radar more information blitzortung!


warning for Snow/Ice more information rain snow radar


Visit our other weather sites:

Template documentation
and downloads

And another site



Weather Underground History page Text

Daily Summary for January 25, 2018 Units:  Metric    English   Both
« Previous Day
Next Day »
Daily Weekly Monthly Yearly Custom
  High: Low: Average:
Temperature: -17.8 °C -14.5 °C -13.3 °C
Dew Point: -17.8 °C -14.7 °C -13.8 °C
Humidity: Humidity % 86 % 94 %
Wind Speed: 0 km/h 0 km/h 4.7 km/h
Wind Gust: 0 km/h - -
Wind:- - SSW
Pressure: 0 hPa 34293.4 hPa -
Precipitation: 754.38 mm    
Historical Graphs
 
 
Tabular Data for January 25, 2018
Time Temperature Dew Point Pressure Wind Wind Speed Wind Gust Humidity Rainfall Rate (Hourly)
-17.8 °C -17.8 °C 0 hPa Calm     Humidity % 0 mm
00:02 -12.2 °C -13.3 °C 34496.6 hPa SSW 15.6 km/h 28.5 km/h 87 % 0 mm
00:08 -12.2 °C -13.3 °C 34496.6 hPa SW 17.9 km/h 25.9 km/h 87 % 0 mm
00:14 -12.1 °C -13.3 °C 34496.6 hPa SSW 17.9 km/h 28.5 km/h 87 % 0 mm
00:20 -12.1 °C -13.3 °C 34496.6 hPa SSW 20.9 km/h 28.5 km/h 87 % 0 mm
00:26 -12.1 °C -13.2 °C 34496.6 hPa SSW 17.9 km/h 28.5 km/h 87 % 0 mm
00:32 -12.1 °C -13.3 °C 34496.6 hPa SSW 23 km/h 25.9 km/h 86 % 0 mm
00:38 -12.1 °C -13.2 °C 34496.6 hPa SW 23 km/h 28.5 km/h 87 % 0 mm
00:44 -12.1 °C -13.2 °C 34496.6 hPa SSW 12.7 km/h 20.8 km/h 87 % 0 mm
00:50 -12.1 °C -13.3 °C 34496.6 hPa SSW 10.3 km/h 15.6 km/h 87 % 0 mm
00:56 -12.1 °C -13.3 °C 34496.6 hPa SSW 12.7 km/h 20.8 km/h 87 % 0 mm
01:02 -12.1 °C -13.3 °C 34496.6 hPa SSW 10.3 km/h 18.2 km/h 87 % 0 mm
01:08 -12.1 °C -13.2 °C 34496.6 hPa SSW 10.3 km/h 18.2 km/h 88 % 0 mm
01:14 -12.2 °C -13.2 °C 34496.6 hPa SSW 20.9 km/h 20.9 km/h 88 % 0 mm
01:20 -12.2 °C -13.2 °C 34496.6 hPa SSW 12.7 km/h 18.2 km/h 88 % 0 mm
01:26 -12.2 °C -13.2 °C 34496.6 hPa SSW 10.3 km/h 15.6 km/h 89 % 0 mm
01:32 -12.3 °C -13.2 °C 34496.6 hPa SW 12.7 km/h 18.2 km/h 89 % 0 mm
01:38 -12.3 °C -13.2 °C 34496.6 hPa SSW 10.3 km/h 12.9 km/h 89 % 0 mm
01:44 -12.3 °C -13.2 °C 34496.6 hPa SSW 7.6 km/h 10.3 km/h 89 % 0 mm
01:50 -12.3 °C -13.2 °C 34496.6 hPa SSW 7.6 km/h 12.9 km/h 89 % 0 mm
01:56 -12.3 °C -13.2 °C 34496.6 hPa SSW 7.6 km/h 10.3 km/h 89 % 0 mm
02:02 -12.3 °C -13.2 °C 34496.6 hPa SSW 7.6 km/h 12.9 km/h 89 % 0 mm
02:08 -12.3 °C -13.3 °C 34496.6 hPa South 2.3 km/h 12.9 km/h 89 % 0 mm
02:14 -12.3 °C -13.3 °C 34496.6 hPa SSW 10.3 km/h 12.9 km/h 89 % 0 mm
02:20 -12.3 °C -13.3 °C 34496.6 hPa South 7.6 km/h 10.3 km/h 89 % 0 mm
02:26 -12.3 °C -13.3 °C 34486.4 hPa SSE 7.6 km/h 10.3 km/h 89 % 0 mm
02:32 -12.3 °C -13.3 °C 34486.4 hPa SSW 5.1 km/h 12.9 km/h 89 % 0 mm
02:38 -12.4 °C -13.3 °C 34486.4 hPa South 5.1 km/h 15.6 km/h 89 % 0 mm
02:44 -12.4 °C -13.3 °C 34486.4 hPa South 5.1 km/h 12.9 km/h 89 % 0 mm
02:50 -12.4 °C -13.3 °C 34486.4 hPa South 5.1 km/h 7.7 km/h 89 % 0 mm
02:56 -12.4 °C -13.3 °C 34486.4 hPa SSE 10.3 km/h 10.3 km/h 89 % 0 mm
03:02 -12.4 °C -13.3 °C 34486.4 hPa ESE 7.6 km/h 10.3 km/h 90 % 0 mm
03:08 -12.4 °C -13.3 °C 34476.3 hPa SSE 2.3 km/h 12.9 km/h 90 % 0 mm
03:14 -12.4 °C -13.3 °C 34476.3 hPa South 5.1 km/h 12.9 km/h 90 % 0 mm
03:20 -12.4 °C -13.3 °C 34476.3 hPa SSW 7.6 km/h 7.7 km/h 90 % 0 mm
03:26 -12.4 °C -13.3 °C 34462.7 hPa South 10.3 km/h 10.3 km/h 90 % 0 mm
03:32 -12.4 °C -13.3 °C 34462.7 hPa SSE 5.1 km/h 12.9 km/h 90 % 0 mm
03:38 -12.4 °C -13.3 °C 34462.7 hPa South 10.3 km/h 15.6 km/h 90 % 0 mm
03:44 -12.4 °C -13.3 °C 34462.7 hPa SW 7.6 km/h 10.3 km/h 90 % 0 mm
03:50 -12.4 °C -13.3 °C 34462.7 hPa SW 5.1 km/h 15.6 km/h 90 % 0 mm
03:56 -12.4 °C -13.3 °C 34462.7 hPa South 7.6 km/h 10.3 km/h 90 % 0 mm
04:02 -12.5 °C -13.4 °C 34452.6 hPa South 7.6 km/h 10.3 km/h 90 % 0 mm
04:08 -12.5 °C -13.4 °C 34452.6 hPa SSW 5.1 km/h 10.3 km/h 89 % 0 mm
04:14 -12.5 °C -13.4 °C 34452.6 hPa South 5.1 km/h 10.3 km/h 89 % 0 mm
04:20 -12.6 °C -13.5 °C 34452.6 hPa SSW 5.1 km/h 5.1 km/h 89 % 0 mm
04:26 -12.6 °C -13.4 °C 34452.6 hPa SSW 5.1 km/h 7.7 km/h 90 % 0 mm
04:32 -12.6 °C -13.4 °C 34452.6 hPa SSW 7.6 km/h 15.6 km/h 90 % 0 mm
04:38 -12.6 °C -13.5 °C 34452.6 hPa SSW 5.1 km/h 10.3 km/h 89 % 0 mm
04:44 -12.6 °C -13.5 °C 34452.6 hPa SSW 7.6 km/h 10.3 km/h 89 % 0 mm
04:50 -12.6 °C -13.5 °C 34452.6 hPa SSW 15.6 km/h 15.6 km/h 89 % 0 mm
04:56 -12.6 °C -13.5 °C 34452.6 hPa SSW 7.6 km/h 10.3 km/h 89 % 0 mm
05:02 -12.6 °C -13.5 °C 34442.4 hPa SSW 5.1 km/h 12.9 km/h 89 % 0 mm
05:08 -12.6 °C -13.6 °C 34442.4 hPa SSW 2.3 km/h 7.7 km/h 89 % 0 mm
05:14 -12.7 °C -13.6 °C 34452.6 hPa West 5.1 km/h 12.9 km/h 90 % 0 mm
05:20 -12.6 °C -13.5 °C 34442.4 hPa SSW 2.3 km/h 10.3 km/h 90 % 0 mm
05:26 -12.6 °C -13.5 °C 34442.4 hPa SSW 2.3 km/h 5.1 km/h 90 % 0 mm
05:32 -12.7 °C -13.6 °C 34442.4 hPa SW 5.1 km/h 5.1 km/h 90 % 0 mm
05:38 -12.7 °C -13.6 °C 34442.4 hPa SW 10.3 km/h 10.3 km/h 90 % 0 mm
05:44 -12.7 °C -13.6 °C 34452.6 hPa West 5.1 km/h 10.3 km/h 89 % 0 mm
05:50 -12.7 °C -13.6 °C 34452.6 hPa WSW 7.6 km/h 12.9 km/h 89 % 0 mm
05:56 -12.7 °C -13.6 °C 34442.4 hPa SW 7.6 km/h 12.9 km/h 89 % 0 mm
06:02 -12.7 °C -13.6 °C 34442.4 hPa SW 7.6 km/h 7.7 km/h 89 % 0 mm
06:08 -12.7 °C -13.7 °C 34442.4 hPa SW 5.1 km/h 10.3 km/h 89 % 0 mm
06:14 -12.7 °C -13.6 °C 34442.4 hPa SW 10.3 km/h 10.3 km/h 90 % 0 mm
06:20 -12.8 °C -13.7 °C 34442.4 hPa SSW 5.1 km/h 10.3 km/h 90 % 0 mm
06:26 -12.8 °C -13.6 °C 34442.4 hPa SW 12.7 km/h 12.9 km/h 91 % 0 mm
06:32 -12.9 °C -13.7 °C 34442.4 hPa SW 17.9 km/h 23.3 km/h 91 % 0 mm
06:38 -12.9 °C -13.6 °C 34442.4 hPa SW 15.6 km/h 20.8 km/h 92 % 0 mm
06:44 -12.9 °C -13.6 °C 34442.4 hPa SW 15.6 km/h 18.2 km/h 93 % 0 mm
06:50 -13 °C -13.5 °C 34428.8 hPa SW 5.1 km/h 18.2 km/h 94 % 7.62 mm
06:56 -13.1 °C -13.6 °C 34428.8 hPa SW 12.7 km/h 18.2 km/h 94 % 12.7 mm
07:02 -13.1 °C -13.6 °C 34428.8 hPa SSW 10.3 km/h 15.6 km/h 95 % 12.7 mm
07:08 -13.1 °C -13.6 °C 34428.8 hPa South 10.3 km/h 12.9 km/h 95 % 12.7 mm
07:14 -13.2 °C -13.6 °C 34428.8 hPa SW 12.7 km/h 12.9 km/h 95 % 20.32 mm
07:20 -13.2 °C -13.5 °C 34428.8 hPa SSW 5.1 km/h 10.3 km/h 96 % 20.32 mm
07:26 -13.2 °C -13.6 °C 34428.8 hPa South 5.1 km/h 10.3 km/h 96 % 25.4 mm
07:32 -13.2 °C -13.6 °C 34428.8 hPa South 7.6 km/h 7.7 km/h 96 % 25.4 mm
07:38 -13.2 °C -13.6 °C 34428.8 hPa South 7.6 km/h 12.9 km/h 96 % 25.4 mm
07:44 -13.2 °C -13.6 °C 34418.7 hPa SSW 7.6 km/h 10.3 km/h 96 % 33.02 mm
07:51 -13.2 °C -13.6 °C 34418.7 hPa SW 5.1 km/h 10.3 km/h 96 % 25.4 mm
07:57 -13.2 °C -13.6 °C 34418.7 hPa SSW 5.1 km/h 7.7 km/h 96 % 25.4 mm
08:03 -13.2 °C -13.4 °C 34418.7 hPa South 2.3 km/h 7.7 km/h 97 % 25.4 mm
08:09 -13.2 °C -13.4 °C 34418.7 hPa South 2.3 km/h 7.7 km/h 97 % 20.32 mm
08:15 -13.2 °C -13.4 °C 34405.1 hPa Calm   5.1 km/h 97 % 20.32 mm
08:21 -13.2 °C -13.4 °C 34405.1 hPa Calm   5.1 km/h 97 % 25.4 mm
08:27 -13.2 °C -13.4 °C 34405.1 hPa Calm   2.6 km/h 97 % 20.32 mm
08:33 -13.2 °C -13.4 °C 34405.1 hPa Calm   2.6 km/h 97 % 20.32 mm
08:39 -13.2 °C -13.4 °C 34405.1 hPa Calm   2.6 km/h 97 % 25.4 mm
08:45 -13.2 °C -13.4 °C 34405.1 hPa Calm   2.6 km/h 97 % 20.32 mm
08:51 -13.2 °C -13.4 °C 34405.1 hPa Calm   2.6 km/h 97 % 25.4 mm
08:57 -13.2 °C -13.4 °C 34405.1 hPa Calm     97 % 20.32 mm
09:03 -13.2 °C -13.4 °C 34405.1 hPa Calm   2.6 km/h 97 % 25.4 mm
09:09 -13.2 °C -13.4 °C 34395 hPa Calm     97 % 33.02 mm
09:15 -13.2 °C -13.4 °C 34395 hPa Calm   2.6 km/h 97 % 25.4 mm
09:21 -13.2 °C -13.4 °C 34395 hPa Calm   2.6 km/h 97 % 20.32 mm
09:27 -13.2 °C -13.4 °C 34395 hPa SE 2.3 km/h 5.1 km/h 97 % 20.32 mm
09:33 -13.2 °C -13.4 °C 34395 hPa Calm   2.6 km/h 97 % 20.32 mm
09:39 -13.2 °C -13.4 °C 34395 hPa SE 2.3 km/h 5.1 km/h 97 % 12.7 mm
09:45 -13.3 °C -13.5 °C 34384.8 hPa Calm   2.6 km/h 97 % 20.32 mm
09:51 -13.3 °C -13.5 °C 34384.8 hPa SE 2.3 km/h 2.6 km/h 97 % 12.7 mm
09:57 -13.3 °C -13.5 °C 34384.8 hPa Calm   2.6 km/h 97 % 12.7 mm
10:03 -13.3 °C -13.5 °C 34384.8 hPa SE 2.3 km/h 5.1 km/h 97 % 12.7 mm
10:09 -13.3 °C -13.5 °C 34384.8 hPa SSE 2.3 km/h 5.1 km/h 97 % 7.62 mm
10:15 -13.3 °C -13.5 °C 34384.8 hPa Calm   2.6 km/h 97 % 7.62 mm
10:21 -13.3 °C -13.5 °C 34384.8 hPa Calm   2.6 km/h 97 % 7.62 mm
10:27 -13.3 °C -13.5 °C 34384.8 hPa SSW 2.3 km/h 5.1 km/h 97 % 7.62 mm
10:33 -13.3 °C -13.5 °C 34384.8 hPa SSW 2.3 km/h 5.1 km/h 97 % 7.62 mm
10:39 -13.3 °C -13.5 °C 34384.8 hPa SSW 2.3 km/h 2.6 km/h 97 % 12.7 mm
10:45 -13.3 °C -13.6 °C 34384.8 hPa SSW 2.3 km/h 5.1 km/h 96 % 12.7 mm
10:51 -13.2 °C -13.6 °C 34384.8 hPa SW 5.1 km/h 5.1 km/h 96 % 12.7 mm
10:57 -13.2 °C -13.6 °C 34384.8 hPa SSE 2.3 km/h 7.7 km/h 96 % 20.32 mm
11:03 -13.2 °C -13.6 °C 34384.8 hPa South 2.3 km/h 7.7 km/h 96 % 20.32 mm
11:10 -13.2 °C -13.6 °C 34384.8 hPa SW 2.3 km/h 7.7 km/h 96 % 25.4 mm
11:16 -13.2 °C -13.6 °C 34384.8 hPa SW 2.3 km/h 5.1 km/h 96 % 25.4 mm
11:22 -13.2 °C -13.6 °C 34384.8 hPa South 2.3 km/h 5.1 km/h 96 % 33.02 mm
11:28 -13.2 °C -13.6 °C 34384.8 hPa SE 2.3 km/h 5.1 km/h 96 % 38.1 mm
11:34 -13.2 °C -13.6 °C 34371.3 hPa SSW 5.1 km/h 5.1 km/h 96 % 38.1 mm
11:40 -13.2 °C -13.5 °C 34371.3 hPa SSE 2.3 km/h 2.6 km/h 96 % 38.1 mm
11:46 -13.2 °C -13.6 °C 34371.3 hPa Calm   5.1 km/h 95 % 38.1 mm
11:52 -13.2 °C -13.7 °C 34371.3 hPa Calm   5.1 km/h 95 % 38.1 mm
11:58 -13.2 °C -13.7 °C 34371.3 hPa SSW 5.1 km/h 5.1 km/h 95 % 38.1 mm
12:04 -13.2 °C -13.6 °C 34371.3 hPa Calm   2.6 km/h 96 % 58.42 mm
12:10 -13.2 °C -13.6 °C 34371.3 hPa Calm   2.6 km/h 96 % 58.42 mm
12:16 -13.2 °C -13.6 °C 34371.3 hPa SW 5.1 km/h 5.1 km/h 96 % 63.5 mm
12:22 -13.2 °C -13.6 °C 34371.3 hPa SSW 2.3 km/h 2.6 km/h 96 % 76.2 mm
12:28 -13.2 °C -13.6 °C 34371.3 hPa Calm   5.1 km/h 96 % 83.82 mm
12:34 -13.2 °C -13.6 °C 34371.3 hPa SSW 2.3 km/h 5.1 km/h 96 % 83.82 mm
12:40 -13.2 °C -13.6 °C 34361.1 hPa SSW 2.3 km/h 5.1 km/h 96 % 91.44 mm
12:46 -13.2 °C -13.6 °C 34371.3 hPa SSW 2.3 km/h 5.1 km/h 96 % 96.52 mm
12:52 -13.2 °C -13.5 °C 34361.1 hPa SSW 5.1 km/h 5.1 km/h 96 % 91.44 mm
12:58 -13.2 °C -13.6 °C 34361.1 hPa Calm   2.6 km/h 96 % 91.44 mm
13:04 -13.2 °C -13.6 °C 34361.1 hPa South 2.3 km/h 7.7 km/h 96 % 76.2 mm
13:10 -13.2 °C -13.5 °C 34347.6 hPa South 2.3 km/h 5.1 km/h 96 % 76.2 mm
13:16 -13.2 °C -13.5 °C 34347.6 hPa Calm     96 % 63.5 mm
13:22 -13.2 °C -13.5 °C 34347.6 hPa Calm     96 % 58.42 mm
13:28 -13.2 °C -13.5 °C 34337.4 hPa Calm     96 % 45.72 mm
13:34 -13.2 °C -13.5 °C 34337.4 hPa Calm     96 % 38.1 mm
13:40 -13.1 °C -13.4 °C 34327.3 hPa Calm     96 % 33.02 mm
13:46 -13.1 °C -13.4 °C 34327.3 hPa Calm     96 % 25.4 mm
13:52 -13.1 °C -13.4 °C 34313.7 hPa Calm     96 % 25.4 mm
13:58 -13.1 °C -13.4 °C 34313.7 hPa Calm     96 % 20.32 mm
14:04 -13.1 °C -13.4 °C 34313.7 hPa Calm     96 % 25.4 mm
14:10 -13 °C -13.3 °C 34313.7 hPa Calm     96 % 33.02 mm
14:16 -13 °C -13.3 °C 34313.7 hPa Calm   2.6 km/h 96 % 33.02 mm
14:22 -13 °C -13.3 °C 34313.7 hPa Calm   2.6 km/h 96 % 38.1 mm
14:28 -12.9 °C -13.3 °C 34313.7 hPa South 2.3 km/h 5.1 km/h 96 % 50.8 mm
14:34 -13 °C -13.3 °C 34313.7 hPa SSE 2.3 km/h 5.1 km/h 96 % 58.42 mm
14:40 -13 °C -13.3 °C 34303.6 hPa Calm   2.6 km/h 96 % 58.42 mm
14:46 -13 °C -13.3 °C 34303.6 hPa Calm     96 % 71.12 mm
14:52 -13 °C -13.3 °C 34303.6 hPa Calm     96 % 76.2 mm
15:04 -12.9 °C -13.2 °C 34303.6 hPa Calm     97 % 83.82 mm
15:10 -12.9 °C -13.2 °C 34303.6 hPa SE 2.3 km/h 10.3 km/h 97 % 83.82 mm
15:16 -12.9 °C -13.2 °C 34303.6 hPa South 2.3 km/h 2.6 km/h 97 % 91.44 mm
15:22 -12.9 °C -13.2 °C 34303.6 hPa SW 2.3 km/h 5.1 km/h 97 % 83.82 mm
15:28 -12.9 °C -13.2 °C 34313.7 hPa SSW 5.1 km/h 12.9 km/h 97 % 91.44 mm
15:34 -12.9 °C -13.2 °C 34313.7 hPa SW 7.6 km/h 15.6 km/h 97 % 91.44 mm
15:40 -12.9 °C -13.2 °C 34313.7 hPa WNW 10.3 km/h 12.9 km/h 97 % 96.52 mm
15:46 -13.1 °C -13.4 °C 34313.7 hPa Calm   2.6 km/h 96 % 96.52 mm
15:52 -13.3 °C -13.6 °C 34313.7 hPa West 2.3 km/h 2.6 km/h 96 % 104.14 mm
15:58 -13.3 °C -13.7 °C 34303.6 hPa NE 5.1 km/h 10.3 km/h 96 % 104.14 mm
16:04 -13.3 °C -13.7 °C 34303.6 hPa NE 5.1 km/h 12.9 km/h 96 % 104.14 mm
16:10 -13.4 °C -13.7 °C 34303.6 hPa ENE 7.6 km/h 7.7 km/h 96 % 96.52 mm
16:16 -13.4 °C -13.7 °C 34293.4 hPa NNE 28.5 km/h 31.1 km/h 96 % 91.44 mm
16:22 -13.4 °C -13.8 °C 34303.6 hPa NNE 10.3 km/h 25.9 km/h 96 % 91.44 mm
16:28 -13.4 °C -13.8 °C 34313.7 hPa NW 10.3 km/h 20.8 km/h 96 % 83.82 mm
16:35 -13.6 °C -13.9 °C 34313.7 hPa NNE 15.6 km/h 41.4 km/h 96 % 121.92 mm
16:41 -13.8 °C -14.2 °C 34313.7 hPa NNW 20.9 km/h 38.8 km/h 95 % 134.62 mm
16:47 -13.8 °C -14.2 °C 34313.7 hPa NNW 15.6 km/h 25.9 km/h 95 % 142.24 mm
16:53 -13.9 °C -14.3 °C 34313.7 hPa NW 12.7 km/h 18.2 km/h 95 % 129.54 mm
16:59 -13.9 °C -14.3 °C 34313.7 hPa NNW 26.2 km/h 26.2 km/h 95 % 129.54 mm
17:05 -13.9 °C -14.3 °C 34313.7 hPa North 12.7 km/h 15.6 km/h 95 % 129.54 mm
17:11 -13.9 °C -14.3 °C 34313.7 hPa North 12.7 km/h 20.8 km/h 95 % 129.54 mm
17:17 -13.9 °C -14.3 °C 34313.7 hPa North 10.3 km/h 18.2 km/h 95 % 134.62 mm
17:23 -13.9 °C -14.3 °C 34313.7 hPa NNW 10.3 km/h 12.9 km/h 95 % 142.24 mm
17:29 -13.9 °C -14.3 °C 34327.3 hPa NNW 10.3 km/h 12.9 km/h 95 % 129.54 mm
17:35 -13.9 °C -14.3 °C 34313.7 hPa NE 5.1 km/h 15.6 km/h 96 % 91.44 mm
17:41 -14 °C -14.3 °C 34313.7 hPa NNE 12.7 km/h 15.6 km/h 96 % 83.82 mm
17:47 -14 °C -14.3 °C 34313.7 hPa NNW 7.6 km/h 15.6 km/h 96 % 76.2 mm
17:53 -14 °C -14.3 °C 34313.7 hPa WNW 2.3 km/h 18.2 km/h 96 % 71.12 mm
17:59 -14 °C -14.3 °C 34313.7 hPa WNW 7.6 km/h 15.6 km/h 96 % 63.5 mm
18:05 -14 °C -14.3 °C 34313.7 hPa NNE 5.1 km/h 12.9 km/h 96 % 63.5 mm
18:11 -14 °C -14.3 °C 34327.3 hPa Calm   10.3 km/h 96 % 58.42 mm
18:17 -14.1 °C -14.4 °C 34327.3 hPa North 5.1 km/h 10.3 km/h 96 % 58.42 mm
18:23 -14.1 °C -14.4 °C 34327.3 hPa NE 2.3 km/h 7.7 km/h 96 % 45.72 mm
18:29 -14.1 °C -14.4 °C 34337.4 hPa Calm   5.1 km/h 96 % 38.1 mm
18:35 -14.1 °C -14.4 °C 34337.4 hPa Calm   2.6 km/h 96 % 38.1 mm
18:41 -14.1 °C -14.4 °C 34337.4 hPa Calm     96 % 33.02 mm
18:47 -14.1 °C -14.4 °C 34337.4 hPa Calm     96 % 33.02 mm
18:53 -14.1 °C -14.4 °C 34337.4 hPa Calm     96 % 33.02 mm
18:59 -14.1 °C -14.4 °C 34347.6 hPa Calm   2.6 km/h 96 % 33.02 mm
19:05 -14.1 °C -14.4 °C 34347.6 hPa Calm   2.6 km/h 96 % 33.02 mm
19:11 -14.1 °C -14.4 °C 34347.6 hPa Calm     96 % 38.1 mm
19:17 -14.1 °C -14.4 °C 34347.6 hPa Calm     96 % 38.1 mm
19:23 -14.1 °C -14.4 °C 34347.6 hPa Calm     96 % 45.72 mm
19:29 -14.1 °C -14.4 °C 34347.6 hPa Calm     96 % 45.72 mm
19:35 -14.1 °C -14.4 °C 34347.6 hPa Calm     96 % 45.72 mm
19:41 -14.2 °C -14.5 °C 34347.6 hPa Calm     96 % 50.8 mm
19:48 -14.2 °C -14.5 °C 34347.6 hPa Calm     96 % 50.8 mm
19:54 -14.2 °C -14.5 °C 34347.6 hPa Calm     96 % 50.8 mm
20:00 -14.2 °C -14.4 °C 34361.1 hPa Calm     97 % 50.8 mm
20:06 -14.1 °C -14.3 °C 34361.1 hPa Calm     97 % 50.8 mm
20:12 -14.1 °C -14.3 °C 34361.1 hPa SW 2.3 km/h 2.6 km/h 97 % 45.72 mm
20:18 -14.1 °C -14.3 °C 34361.1 hPa WSW 2.3 km/h 5.1 km/h 97 % 45.72 mm
20:24 -14.1 °C -14.3 °C 34371.3 hPa SW 5.1 km/h 5.1 km/h 97 % 38.1 mm
20:30 -14.2 °C -14.4 °C 34371.3 hPa Calm   5.1 km/h 97 % 38.1 mm
20:36 -14.2 °C -14.6 °C 34371.3 hPa WSW 5.1 km/h 5.1 km/h 96 % 38.1 mm
20:42 -14.3 °C -14.5 °C 34371.3 hPa Calm   2.6 km/h 97 % 38.1 mm
20:48 -14.3 °C -14.5 °C 34361.1 hPa Calm     97 % 33.02 mm
20:54 -14.3 °C -14.5 °C 34361.1 hPa Calm   2.6 km/h 97 % 38.1 mm
21:00 -14.3 °C -14.6 °C 34361.1 hPa Calm   2.6 km/h 97 % 33.02 mm
21:06 -14.3 °C -14.6 °C 34361.1 hPa Calm   2.6 km/h 97 % 25.4 mm
21:12 -14.3 °C -14.6 °C 34361.1 hPa Calm     97 % 20.32 mm
21:18 -14.3 °C -14.6 °C 34361.1 hPa Calm     97 % 12.7 mm
21:24 -14.3 °C -14.6 °C 34371.3 hPa Calm     97 % 12.7 mm
21:30 -14.3 °C -14.6 °C 34371.3 hPa Calm     97 % 12.7 mm
21:36 -14.4 °C -14.6 °C 34361.1 hPa Calm     97 % 12.7 mm
21:42 -14.4 °C -14.6 °C 34371.3 hPa Calm     97 % 7.62 mm
21:48 -14.4 °C -14.6 °C 34371.3 hPa Calm     97 % 7.62 mm
21:54 -14.4 °C -14.7 °C 34371.3 hPa Calm     97 % 0 mm
22:00 -14.4 °C -14.7 °C 34371.3 hPa Calm     97 % 0 mm
22:06 -14.4 °C -14.7 °C 34371.3 hPa Calm     97 % 0 mm
22:12 -14.4 °C -14.6 °C 34371.3 hPa Calm     97 % 7.62 mm
22:18 -14.4 °C -14.6 °C 34371.3 hPa Calm     97 % 7.62 mm
22:24 -14.4 °C -14.6 °C 34371.3 hPa Calm     97 % 7.62 mm
22:30 -14.4 °C -14.6 °C 34384.8 hPa Calm     97 % 7.62 mm
22:36 -14.4 °C -14.6 °C 34384.8 hPa Calm     97 % 7.62 mm
22:42 -14.4 °C -14.6 °C 34384.8 hPa Calm     97 % 7.62 mm
22:48 -14.4 °C -14.6 °C 34384.8 hPa Calm     97 % 7.62 mm
22:54 -14.4 °C -14.6 °C 34384.8 hPa Calm     97 % 7.62 mm
23:00 -14.4 °C -14.6 °C 34395 hPa Calm     97 % 7.62 mm
23:06 -14.4 °C -14.6 °C 34395 hPa Calm     97 % 7.62 mm
23:12 -14.4 °C -14.6 °C 34405.1 hPa Calm     97 % 0 mm
23:18 -14.4 °C -14.6 °C 34405.1 hPa SW 2.3 km/h 2.6 km/h 97 % 0 mm
23:24 -14.4 °C -14.6 °C 34405.1 hPa SW 2.3 km/h 2.6 km/h 97 % 7.62 mm
23:30 -14.4 °C -14.6 °C 34405.1 hPa SW 2.3 km/h 5.1 km/h 97 % 7.62 mm
23:36 -14.4 °C -14.7 °C 34405.1 hPa Calm   5.1 km/h 97 % 7.62 mm
23:42 -14.5 °C -14.7 °C 34405.1 hPa West 2.3 km/h 2.6 km/h 97 % 7.62 mm
23:48 -14.5 °C -14.7 °C 34405.1 hPa Calm   2.6 km/h 97 % 12.7 mm
23:54 -14.5 °C -14.7 °C 34395 hPa Calm   2.6 km/h 97 % 12.7 mm
Meteo18
Compliments of Weather Underground - 4 mb

Script developed by  Jim McMurry - jmcmurry@mwt.net Adapted for the template by  Wim van der Kuil - Leuven-Template.eu

You find our weather info also at:

European Weather Network

Weather Underground

Equipment we use:

Weather-station
Davis Vue

Weather-program
Meteobridge

Weather-server
Raspberry PI 2 B+

Provider
1 and 1

Davis Vue

Meteobridge

Raspberry PI 2 B+

1 and 1